Livingston, MT

8:15 AM MST on February 19, 2017 (GMT -0700)
Mission

Weather History for KLVM - December, 2012

Change the Weather History Date:

Sunday, December 9, 2012

  Actual Average Record
Temperature  
Mean Temperature 12 °F 26 °F  
Max Temperature 28 °F 35 °F 60 °F (1981)
Min Temperature -5 °F 17 °F -17 °F (1972)
Degree Days  
Heating Degree Days 54 39  
Month to date heating degree days 342  
Since 1 July heating degree days 2301  
Cooling Degree Days 0 0  
Month to date cooling degree days 0  
Year to date cooling degree days 230  
Moisture  
Dew Point 3 °F    
Average Humidity 66    
Maximum Humidity 85    
Minimum Humidity 48    
Precipitation  
Precipitation 0.00 in 0.02 in 0.10 in (1997)
Month to date precipitation 0.18  
Year to date precipitation 14.47  
Sea Level Pressure  
Sea Level Pressure 30.27 in    
Wind  
Wind Speed 11 mph (West)    
Max Wind Speed 34 mph    
Max Gust Speed 53 mph    
Visibility 8 miles    
Events Snow    
T = Trace of Precipitation, MM = Missing Value Source: NWS Daily Summary

Daily Weather History Graph

Daily Weather History Graph

Search for Another Location

Airport or City:

Trip Planner

Search our weather history database for the weather conditions in past years. The results will help you decide how hot, cold, wet, or windy it might be!

Date:

Astronomy

Dec. 09, 2012 Rise Set
Actual Time 7:51 AM MST 4:37 PM MST
Civil Twilight 7:17 AM MST 5:11 PM MST
Nautical Twilight 6:39 AM MST 5:49 PM MST
Astronomical Twilight 6:03 AM MST 6:25 PM MST
Moon 3:18 AM MST (12/9) 1:54 PM MST (12/9)
Length of Visible Light 9h 54m
Length of Day
8h 46m
Waning Crescent, 18% of the Moon is Illuminated
Dec 9
Waning Crescent
Dec 13
New
Dec 19
First Quarter
Dec 28
Full
Jan 4
Last Quarter

Hourly Weather History & Observations

Time (MST) Temp. Windchill Dew Point Humidity Pressure Visibility Wind Dir Wind Speed Gust Speed Precip Events Conditions
12:53 AM 10.9 °F 1.4 °F 6.1 °F 81% 30.34 in 3.0 mi ESE 5.8 mph - 0.00 in Snow Light Snow
1:15 AM 10.4 °F 0.8 °F 6.8 °F 85% 30.14 in 2.5 mi ESE 5.8 mph - 0.00 in Snow Light Snow
1:30 AM 8.6 °F - 3.2 °F 79% 30.14 in 3.0 mi Calm Calm - 0.00 in Snow Light Snow
1:53 AM 5.0 °F -2.1 °F -0.0 °F 80% 30.37 in 5.0 mi SSE 3.5 mph - 0.00 in   Haze
2:53 AM 3.9 °F - -0.9 °F 80% 30.39 in 9.0 mi Calm Calm - N/A   Mostly Cloudy
3:53 AM -0.0 °F -14.2 °F -4.0 °F 83% 30.41 in 10.0 mi NW 8.1 mph - N/A   Scattered Clouds
4:53 AM -0.0 °F -14.2 °F -5.1 °F 79% 30.43 in 10.0 mi NW 8.1 mph - N/A   Mostly Cloudy
5:04 AM -0.4 °F -13.4 °F -5.8 °F 78% 30.18 in 10.0 mi NW 6.9 mph - N/A   Mostly Cloudy
5:14 AM -0.4 °F -12.0 °F -5.8 °F 78% 30.19 in 10.0 mi NW 5.8 mph - N/A   Mostly Cloudy
5:53 AM -0.9 °F - -6.0 °F 79% 30.46 in 10.0 mi Calm Calm - N/A   Overcast
6:53 AM -0.9 °F -16.4 °F -7.1 °F 75% 30.48 in 10.0 mi NW 9.2 mph - N/A   Overcast
7:53 AM -5.1 °F -15.8 °F -9.9 °F 80% 30.50 in 10.0 mi West 4.6 mph - N/A   Clear
8:53 AM -2.0 °F -18.7 °F -8.0 °F 76% 30.50 in 10.0 mi NW 10.4 mph - N/A   Clear
9:53 AM 1.9 °F -16.2 °F -4.0 °F 76% 30.49 in 10.0 mi NW 13.8 mph - N/A   Clear
10:53 AM 8.1 °F -9.0 °F -0.0 °F 70% 30.45 in 10.0 mi NW 15.0 mph - N/A   Clear
11:35 AM 17.6 °F 0.9 °F 6.8 °F 63% 30.17 in 10.0 mi SW 20.7 mph - N/A   Clear
11:53 AM 17.1 °F 1.0 °F 6.1 °F 62% 30.38 in 10.0 mi WSW 18.4 mph - N/A   Clear
12:53 PM 19.0 °F 3.6 °F 6.1 °F 57% 30.35 in 10.0 mi SW 18.4 mph - N/A   Clear
1:53 PM 16.0 °F 5.3 °F 6.1 °F 65% 30.35 in 10.0 mi NW 8.1 mph - N/A   Clear
2:53 PM 18.0 °F 6.9 °F 6.1 °F 60% 30.32 in 10.0 mi West 9.2 mph - N/A   Clear
3:53 PM 19.9 °F 3.9 °F 5.0 °F 52% 30.30 in 10.0 mi West 20.7 mph 28.8 mph N/A   Partly Cloudy
4:53 PM 21.9 °F 3.9 °F 7.0 °F 53% 30.23 in 7.0 mi West 29.9 mph 40.3 mph N/A   Overcast
5:53 PM 23.0 °F 6.0 °F 7.0 °F 50% 30.21 in 10.0 mi West 27.6 mph 35.7 mph N/A   Overcast
6:53 PM 23.0 °F 5.1 °F 6.1 °F 48% 30.19 in 10.0 mi West 31.1 mph 36.8 mph N/A   Overcast
7:53 PM 23.0 °F 5.7 °F 8.1 °F 53% 30.19 in 9.0 mi West 28.8 mph 41.4 mph N/A   Overcast
8:53 PM 25.0 °F 7.1 °F 8.1 °F 49% 30.15 in 5.0 mi West 34.5 mph 44.9 mph N/A   Haze
9:53 PM 25.0 °F 9.2 °F 8.1 °F 49% 30.14 in 10.0 mi West 25.3 mph 34.5 mph 0.00 in   Overcast
10:50 PM 26.6 °F 10.6 °F 12.2 °F 55% 29.93 in 2.0 mi West 28.8 mph 52.9 mph 0.00 in Snow Light Snow
10:53 PM 27.0 °F 11.6 °F 12.0 °F 53% 30.10 in 2.5 mi West 26.5 mph 52.9 mph 0.00 in Snow Light Snow
11:00 PM 28.4 °F 12.3 °F 12.2 °F 51% 29.92 in 9.0 mi West 32.2 mph 38.0 mph 0.00 in   Overcast
11:53 PM 27.0 °F 9.8 °F 12.0 °F 53% 30.07 in 6.0 mi WSW 34.5 mph 46.0 mph 0.00 in   Haze